Location: Newark
(46.2358°N, 112.1211°W)
Time: 15:31:05
(UTC+00:00)

Envisat - Pass Details

Date: 01 August 2021
Orbit: 764 x 766 km, 98.2° (Epoch: 17 September)

Event Time Altitude Azimuth Distance (km) Brightness Sun altitude
Rises 11:24:41 0° 31° (NNE) 3,243 7.7 -7.6°
Reaches altitude 10° 11:28:08 10° 55° (NE) 2,310 7.3 -7.1°
Maximum altitude 11:30:52 14° 88° (E) 2,010 6.1 -6.7°
Drops below altitude 10° 11:33:35 10° 121° (ESE) 2,300 5.8 -6.3°
Sets 11:36:59 0° 145° (SE) 3,219 6.3 -5.9°
